GSAT0210 (GALILEO 13)

Last updated on Thu Nov 21 2024 00:02:30 GMT+0000 (Coordinated Universal Time)

1 41550U 16030B 24324.78790395 -.00000015 00000+0 00000+0 0 9993 2 41550 55.2972 237.4944 0002087 245.9088 114.1164 1.70473489 52876
UTC large
Height (km)
Speed (km/s)
/
Latitude / Longitude
Inclination (degrees)
Orbital Period (minutes)
Azimuth
Elevation
Range (km)
Doppler Factor

Next 0 passes for location: London (51.5072 / 0.1276)

Sorry there are no passes over London.